TimeEST,TemperatureF,Dew PointF,Humidity,Sea Level PressureIn,VisibilityMPH,Wind Direction,Wind SpeedMPH,Gust SpeedMPH,PrecipitationIn,Events,Conditions,WindDirDegrees,DateUTC
12:56 AM,39.0,28.0,65,30.43,10.0,NNE,5.8,-,N/A,,Clear,20,2012-11-17 05:56:00
1:56 AM,37.9,28.0,68,30.45,10.0,North,4.6,-,N/A,,Clear,10,2012-11-17 06:56:00
2:56 AM,35.1,27.0,72,30.45,10.0,North,4.6,-,N/A,,Clear,360,2012-11-17 07:56:00
3:56 AM,37.0,28.9,73,30.47,10.0,North,4.6,-,N/A,,Clear,360,2012-11-17 08:56:00
4:56 AM,37.9,28.9,70,30.49,10.0,North,5.8,-,N/A,,Clear,360,2012-11-17 09:56:00
5:56 AM,39.0,30.0,70,30.52,10.0,North,6.9,-,N/A,,Clear,360,2012-11-17 10:56:00
6:56 AM,37.9,30.0,73,30.54,10.0,North,3.5,-,N/A,,Clear,10,2012-11-17 11:56:00
7:56 AM,43.0,32.0,65,30.57,10.0,North,6.9,-,N/A,,Clear,360,2012-11-17 12:56:00
8:56 AM,46.0,33.1,61,30.59,10.0,Variable,5.8,-,N/A,,Clear,0,2012-11-17 13:56:00
9:56 AM,48.0,32.0,54,30.60,10.0,NNE,8.1,18.4,N/A,,Clear,20,2012-11-17 14:56:00
10:56 AM,48.9,32.0,52,30.61,10.0,Variable,5.8,-,N/A,,Clear,0,2012-11-17 15:56:00
12:56 PM,51.1,32.0,48,30.58,10.0,North,5.8,-,N/A,,Clear,10,2012-11-17 17:56:00
1:56 PM,52.0,30.9,45,30.58,10.0,Variable,4.6,-,N/A,,Clear,0,2012-11-17 18:56:00
2:56 PM,51.1,30.0,44,30.58,10.0,North,6.9,-,N/A,,Clear,10,2012-11-17 19:56:00
3:56 PM,50.0,30.9,48,30.59,10.0,Calm,Calm,-,N/A,,Clear,0,2012-11-17 20:56:00
4:56 PM,42.1,30.9,65,30.61,10.0,Calm,Calm,-,N/A,,Clear,0,2012-11-17 21:56:00
5:56 PM,37.0,28.9,73,30.61,10.0,Calm,Calm,-,N/A,,Clear,0,2012-11-17 22:56:00
6:56 PM,35.1,28.0,76,30.61,10.0,Calm,Calm,-,N/A,,Clear,0,2012-11-17 23:56:00
7:56 PM,34.0,28.0,79,30.62,9.0,Calm,Calm,-,N/A,,Clear,0,2012-11-18 00:56:00
8:56 PM,32.0,27.0,82,30.63,6.0,Calm,Calm,-,N/A,,Haze,0,2012-11-18 01:56:00
9:56 PM,30.9,28.0,89,30.63,8.0,Calm,Calm,-,N/A,,Clear,0,2012-11-18 02:56:00
10:56 PM,30.0,27.0,88,30.63,6.0,Calm,Calm,-,N/A,,Clear,0,2012-11-18 03:56:00
11:56 PM,30.0,27.0,88,30.64,6.0,Calm,Calm,-,N/A,,Scattered Clouds,0,2012-11-18 04:56:00